GFSSW_sfc_temp_000.txt.gz
Temp
64 63 64 65 65 65 65 65 65 64 64 64 64 64 64 64 65 75 71 72 72 71 70 76 77 76 76 71 70 69 67 64 64 61 68 70 68 72 72 71 72 72 72 76 77
63 61 64 65 64 64 65 65 64 64 64 64 64 64 64 63 76 73 72 71 71 70 77 76 75 75 74 69 70 69 64 64 68 69 68 71 67 68 69 72 71 72 77 76 76
60 62 63 63 63 64 64 64 64 63 64 63 63 63 63 66 76 71 70 71 70 71 75 74 74 72 69 69 67 65 65 65 67 68 68 67 68 67 67 68 68 65 69 71 73
60 61 61 62 62 63 64 64 64 63 64 63 63 63 62 74 65 74 68 69 69 75 75 74 73 69 66 65 65 63 66 64 64 65 66 65 66 66 65 69 69 70 70 72 66
60 60 60 60 61 62 63 64 63 63 63 63 63 63 72 74 69 75 67 70 75 74 71 70 69 65 64 64 63 61 65 63 63 63 63 63 64 61 65 69 73 72 70 66 63
59 59 59 60 61 61 62 63 63 63 63 63 63 62 77 68 73 73 70 71 71 72 69 70 67 67 63 61 61 62 61 63 62 61 60 61 63 61 65 70 70 66 63 62 61
59 59 59 60 60 60 61 62 63 63 62 63 63 70 75 69 74 74 71 69 68 69 67 66 67 65 64 61 61 60 58 64 62 61 58 61 62 58 66 69 67 62 60 60 60
59 58 58 59 59 60 60 62 63 62 63 62 62 74 69 72 75 71 72 69 70 69 67 65 66 64 62 63 62 58 59 56 66 61 56 63 55 64 68 66 59 58 58 58 59
58 58 58 59 59 59 60 61 62 63 64 63 72 75 67 71 70 68 69 67 67 67 66 65 66 60 63 60 62 59 53 53 56 63 58 58 54 63 67 62 54 55 55 56 57
58 58 58 59 59 59 60 63 65 66 69 67 71 72 70 66 66 65 70 68 66 65 65 65 64 63 64 61 51 50 50 52 53 60 57 53 54 61 61 54 52 53 55 55 55
58 58 58 58 59 60 65 76 74 73 67 64 62 59 61 66 63 67 66 67 66 67 62 60 60 57 55 56 56 53 50 51 57 59 52 54 54 58 57 52 51 51 52 52 53
57 58 58 58 58 60 67 62 54 55 56 56 56 56 59 60 63 66 69 66 63 59 61 61 56 55 54 54 52 52 50 53 53 55 51 52 51 54 51 49 50 50 50 51 52
57 57 57 58 58 62 59 54 55 56 54 57 59 59 62 62 60 62 65 60 58 58 55 53 57 53 52 53 50 53 47 47 45 51 55 52 50 51 48 51 51 51 51 52 51
57 57 57 57 61 59 55 53 55 56 58 58 59 62 62 63 59 61 60 60 59 54 53 53 54 51 51 50 48 45 48 46 46 45 41 51 37 48 45 47 47 48 49 50 51
56 56 56 56 61 61 53 53 55 55 45 58 59 66 61 60 56 58 59 60 56 54 54 53 50 49 48 47 48 46 47 46 46 43 41 45 38 45 50 44 43 46 48 50 51
56 56 55 57 57 52 51 54 56 56 44 55 58 56 58 56 55 57 57 59 55 51 49 50 50 50 49 47 46 48 47 49 46 41 33 38 36 41 43 38 41 46 48 48 49
56 55 54 54 59 52 52 57 55 47 57 53 53 53 51 52 51 50 49 50 50 47 46 47 45 47 48 46 47 49 43 35 31 33 33 40 34 41 40 42 43 43 45 47 48
55 54 53 54 55 53 55 61 43 50 52 53 51 49 50 49 49 47 45 46 43 44 43 41 38 43 45 45 43 41 41 32 20 25 29 35 27 37 43 47 46 47 46 46 47
55 55 52 54 53 54 61 47 51 51 54 51 51 48 46 45 46 46 45 45 44 45 44 39 36 42 42 44 44 39 36 39 29 23 21 33 37 43 44 43 44 43 43 43 44
56 54 55 54 54 55 55 48 52 54 51 51 49 51 47 46 44 44 44 43 40 41 42 39 35 39 40 43 42 41 42 29 31 17 16 30 32 34 36 37 40 39 40 41 44
52 50 53 54 55 54 47 48 51 53 54 50 50 49 48 46 45 44 45 41 42 38 42 41 37 35 38 37 38 35 33 33 32 28 18 17 29 42 36 37 37 38 40 41 42
49 45 52 53 48 47 47 48 49 50 50 49 48 48 48 47 41 39 42 44 43 42 38 39 36 30 35 37 37 39 35 33 25 21 25 22 22 41 40 40 39 38 39 41 41
47 48 52 51 44 43 45 47 49 46 48 48 47 47 46 41 37 41 39 38 40 40 37 37 32 26 24 31 35 32 32 33 32 28 18 15 24 40 42 39 39 37 38 39 39
45 40 44 45 48 47 48 46 45 47 49 49 46 44 38 35 37 37 35 35 38 39 39 40 34 33 30 34 33 27 30 32 29 20 21 22 25 32 35 34 35 36 37 37 36
43 40 46 39 40 44 48 49 45 44 46 47 40 42 39 34 35 35 36 34 35 38 38 36 27 30 32 33 31 30 30 30 25 26 19 25 25 30 34 33 34 36 35 33 34
46 40 43 42 48 41 42 43 43 46 41 39 37 38 38 39 35 32 36 34 34 34 33 34 26 25 21 28 28 25 28 28 28 27 25 25 23 36 36 36 34 33 31 31 30
46 45 45 49 44 41 44 44 45 48 43 46 41 37 32 36 41 40 42 42 39 32 30 28 25 18 21 22 22 18 23 27 28 30 28 21 28 34 32 32 30 29 32 28 26

GFSSW_sfc_temp_006.txt.gz
Temp
63 64 64 65 64 64 65 65 65 64 64 64 65 64 64 64 64 75 70 71 71 70 68 75 78 78 76 71 71 68 56 56 58 59 60 66 64 68 69 65 65 66 60 61 64
63 63 64 64 64 64 64 64 64 64 64 64 64 64 64 64 78 72 72 71 70 70 76 75 74 75 70 69 67 61 55 59 65 64 61 65 63 61 62 60 59 61 62 63 62
62 62 63 63 63 64 64 64 63 63 64 63 63 64 64 67 74 72 70 71 70 70 77 76 76 73 67 67 64 62 57 63 66 65 65 62 62 62 58 55 55 54 55 58 58
61 61 61 62 62 63 63 63 63 63 63 63 63 64 63 75 63 73 70 71 71 73 77 76 74 67 63 61 66 57 65 65 64 64 62 59 62 59 59 56 59 57 58 57 55
60 60 60 61 61 62 63 63 63 63 63 63 63 64 71 73 69 78 71 73 78 77 73 70 69 65 62 62 63 59 61 64 64 61 60 63 58 58 56 58 59 59 58 55 54
60 59 59 60 61 62 62 63 63 63 63 63 64 62 73 68 74 78 74 73 73 73 71 70 66 65 62 62 57 60 61 62 61 62 61 58 56 58 57 58 56 57 54 54 53
60 59 59 59 60 61 61 62 63 63 63 64 64 72 75 67 76 75 75 69 69 70 68 67 67 63 62 61 61 60 54 58 59 60 58 56 53 54 57 57 55 54 52 54 54
59 59 58 59 60 60 61 62 63 63 63 64 64 74 67 73 74 75 76 73 73 71 68 66 66 64 61 62 59 54 53 49 58 60 57 53 46 55 59 55 50 50 48 51 53
59 58 58 59 59 59 60 62 62 64 65 65 70 71 66 71 71 73 72 69 70 70 68 71 64 60 58 53 51 53 46 50 53 60 57 53 46 54 56 52 49 47 48 49 50
58 58 58 58 59 59 60 63 66 65 69 76 77 67 69 67 69 69 72 69 66 67 65 61 60 55 55 52 43 43 45 49 47 54 54 50 50 51 51 50 46 45 46 46 48
58 58 58 58 59 60 63 76 72 70 69 65 63 64 66 70 68 69 69 67 68 64 58 60 52 50 52 52 51 50 48 46 53 54 47 48 49 53 49 48 44 43 44 44 46
58 58 58 58 59 60 64 64 56 57 53 62 62 61 66 65 63 67 71 63 61 55 60 56 50 54 55 54 51 49 47 46 51 53 49 47 48 46 47 47 45 44 43 44 45
58 57 57 58 58 63 63 57 62 62 54 60 63 64 63 63 62 62 65 60 57 54 55 49 55 57 54 51 50 49 46 44 42 48 50 47 43 39 45 46 46 47 46 46 44
58 57 57 57 61 65 60 60 61 61 51 57 58 61 63 63 58 63 63 58 57 53 52 51 54 51 49 49 50 42 46 46 44 39 33 45 31 38 41 41 44 44 41 41 41
57 57 57 57 60 65 57 60 60 56 38 59 58 66 63 59 57 57 60 57 52 54 50 50 48 47 46 48 48 45 45 44 42 39 37 39 33 38 41 38 40 41 42 40 40
57 56 55 62 62 55 56 59 56 51 38 54 59 57 57 57 58 59 58 58 55 50 52 51 51 47 47 49 47 48 44 44 44 40 26 37 35 35 36 41 39 41 40 41 40
56 56 56 60 59 55 57 56 49 42 57 53 53 56 54 54 56 54 52 49 47 42 43 48 48 46 47 43 45 43 39 27 25 24 24 37 30 36 38 40 40 40 38 38 38
56 55 56 61 59 55 56 54 39 52 54 54 54 52 51 53 52 50 46 44 51 47 41 38 36 44 47 42 38 40 38 25 17 19 23 33 25 34 42 42 43 42 40 40 39
55 58 58 60 59 56 53 43 47 53 56 53 51 48 49 49 47 46 45 46 47 49 40 41 40 43 43 44 42 38 31 37 26 15 14 25 35 38 40 40 40 39 39 36 38
56 57 59 60 58 55 48 46 52 58 55 53 47 53 46 48 43 45 46 49 47 48 46 41 34 41 39 40 40 36 41 27 27 11 10 25 29 30 32 35 36 35 34 34 37
52 49 54 60 57 51 41 46 53 60 58 52 49 48 50 48 48 45 46 48 49 42 41 40 38 33 37 34 35 32 29 32 33 27 16 12 23 37 35 37 33 33 36 35 36
51 44 53 57 44 48 44 51 54 56 55 53 50 49 48 49 46 45 45 49 47 43 36 39 37 29 35 38 38 35 35 34 20 20 23 20 25 41 39 38 37 35 36 35 37
46 50 51 52 40 43 50 51 54 52 52 51 48 51 51 46 40 44 46 40 46 41 37 37 32 24 27 30 35 30 32 33 33 30 22 19 22 39 39 38 37 34 32 35 36
50 42 44 44 49 46 47 47 47 51 52 54 50 51 47 44 46 41 42 38 40 41 42 43 34 30 31 35 35 27 29 32 31 25 26 26 28 36 39 38 35 33 33 33 35
48 44 48 37 39 43 46 47 47 46 51 52 46 48 46 40 40 40 43 34 36 40 39 37 25 28 32 34 32 31 30 30 28 30 26 30 29 36 37 33 31 31 34 34 34
46 45 44 47 46 40 43 42 43 46 48 45 46 48 46 42 44 39 42 38 33 34 34 32 23 29 24 29 29 26 29 29 31 32 30 31 29 41 41 37 30 33 31 31 30
53 53 49 46 44 43 43 43 44 47 49 51 50 46 42 45 47 41 39 42 38 31 27 27 24 21 20 25 22 17 24 27 30 33 32 25 32 38 34 33 29 29 30 29 28

GFSSW_sfc_temp_009.txt.gz
Temp
64 64 64 65 64 65 65 65 65 64 64 64 65 64 64 65 66 72 64 69 68 70 68 67 69 70 69 64 64 60 50 48 50 53 53 59 57 63 60 55 55 57 53 55 56
63 63 64 64 64 64 64 64 64 64 64 64 64 64 64 64 70 66 70 71 71 70 69 68 67 69 63 62 61 55 48 51 55 53 53 56 57 58 55 53 50 52 55 56 55
62 62 63 63 63 64 64 64 63 63 64 63 63 64 64 64 67 65 71 72 72 70 68 69 69 66 61 61 57 55 51 56 57 59 59 56 56 56 53 47 48 48 50 52 52
61 61 62 62 62 63 64 64 63 63 64 63 63 63 63 67 56 67 70 71 71 71 70 69 66 60 56 55 59 52 59 59 59 58 58 55 56 52 51 49 53 52 52 51 49
60 60 60 61 61 62 63 63 63 63 63 63 63 64 65 63 63 71 70 71 72 71 68 65 62 58 54 55 57 53 56 59 59 59 56 58 55 50 48 51 54 54 52 49 48
60 59 60 60 61 62 62 63 63 63 63 63 64 62 65 59 69 72 70 69 68 67 64 64 59 60 56 56 54 54 56 57 57 58 57 55 53 52 50 51 51 52 49 48 48
60 59 59 59 60 61 62 62 63 63 63 64 64 67 65 63 70 68 69 64 64 64 63 62 60 58 58 55 57 55 51 53 55 56 55 54 49 50 52 51 50 49 48 48 48
59 59 59 59 60 61 61 62 63 63 63 64 64 63 60 68 65 69 69 65 66 66 64 62 61 58 55 58 55 49 48 43 53 55 55 52 43 46 51 49 45 45 43 46 47
59 58 58 59 59 60 60 62 62 63 65 65 62 62 58 68 66 67 65 64 64 64 62 68 60 55 55 48 45 45 40 44 47 55 51 49 45 50 50 48 43 42 44 45 45
59 58 58 59 59 60 60 63 64 65 67 70 72 61 63 61 64 65 64 64 61 60 60 57 54 49 48 46 39 40 40 44 43 51 50 46 46 47 47 46 42 41 42 43 43
59 58 58 58 59 60 58 64 61 62 61 60 60 59 61 64 64 63 64 62 61 58 51 54 49 44 45 46 46 45 43 41 46 52 48 45 45 43 45 43 39 39 40 41 43
61 58 58 58 59 60 58 55 51 52 50 58 57 58 61 60 57 62 65 57 56 49 52 48 45 51 53 52 49 46 42 41 47 49 45 44 43 48 45 43 42 40 40 40 41
60 58 57 58 58 59 54 52 55 53 47 54 58 58 58 60 57 57 59 56 52 48 47 45 50 53 51 46 46 43 41 40 42 44 45 42 38 39 41 42 42 43 42 41 41
60 57 57 58 59 56 51 54 55 52 44 52 53 57 59 58 53 59 58 55 52 47 47 47 51 49 45 46 47 39 44 43 41 36 31 39 30 32 37 39 41 41 37 38 39
58 57 57 58 52 56 53 54 53 50 30 53 54 61 59 55 54 54 56 54 48 50 49 47 46 46 44 46 47 43 43 41 39 36 31 35 29 34 38 35 37 36 37 37 39
58 57 56 56 52 50 51 51 50 45 33 50 54 53 52 52 53 54 53 54 52 46 46 47 47 47 46 45 45 45 41 40 37 33 23 34 34 29 31 38 38 36 36 39 39
57 56 54 56 52 50 50 50 42 35 53 49 49 51 49 49 50 50 48 45 45 39 38 43 43 42 45 40 42 40 35 27 23 21 24 32 28 37 37 40 40 35 35 37 37
56 55 54 56 51 50 50 47 32 45 48 51 50 48 47 50 48 46 42 41 45 42 36 34 33 41 44 41 39 37 36 26 19 18 24 31 26 33 36 39 39 38 36 37 36
55 49 49 52 52 50 47 34 38 45 52 49 46 41 42 46 44 42 39 40 45 45 39 35 36 40 41 41 41 36 31 36 27 8 12 24 30 35 35 36 35 34 35 34 35
54 52 51 54 52 48 40 43 45 53 52 50 44 46 40 43 41 39 40 45 44 45 44 39 33 37 37 39 38 36 39 29 29 17 10 21 26 31 30 33 33 33 32 34 33
52 46 49 52 51 43 37 39 48 54 54 49 44 44 45 44 41 38 41 45 45 39 41 39 35 32 35 32 33 30 30 32 32 28 20 13 25 34 35 36 32 32 34 34 33
50 41 48 51 40 38 40 44 50 50 55 52 47 48 45 45 41 41 43 48 44 41 38 38 33 25 31 36 37 34 33 35 28 24 25 25 26 40 39 37 34 33 34 35 36
46 45 50 49 38 38 42 45 50 47 50 47 46 48 49 44 40 43 44 40 43 42 36 37 30 20 29 28 33 31 31 34 33 31 25 21 24 37 36 34 34 31 32 34 34
44 39 43 44 43 40 40 42 43 49 50 49 47 48 44 41 46 40 39 38 39 38 44 42 31 34 32 39 34 29 29 33 33 27 27 28 31 34 34 34 31 31 32 31 31
43 40 44 36 38 40 43 42 43 42 46 50 46 47 45 39 37 39 40 32 35 40 38 37 27 29 34 34 31 32 32 32 30 32 27 29 31 37 42 41 38 33 32 30 29
44 39 39 38 41 39 41 39 40 42 45 44 45 44 47 43 44 36 42 37 35 32 32 32 26 28 27 29 29 27 30 31 32 33 32 32 31 44 44 36 30 30 30 29 28
52 49 49 44 40 37 38 40 42 45 47 49 47 46 42 44 49 47 42 41 42 33 30 27 27 23 24 27 23 19 25 27 31 33 33 25 34 42 38 34 30 29 29 28 28

GFSSW_sfc_temp_015.txt.gz
Temp
64 64 64 65 65 65 65 65 65 64 64 64 65 64 64 65 68 68 63 67 67 70 68 65 67 65 63 60 60 55 48 44 46 49 49 53 52 50 50 48 46 48 47 49 52
62 63 64 64 64 64 65 65 64 64 64 64 64 64 64 64 66 65 70 72 71 71 66 65 64 64 59 57 57 52 46 48 51 51 51 53 53 51 49 45 43 44 48 50 49
60 61 62 63 63 64 64 64 64 64 64 63 63 64 64 62 63 63 72 72 72 69 64 62 62 61 56 56 53 50 49 53 53 55 56 54 50 50 48 45 45 43 45 46 45
60 59 61 62 62 63 64 64 64 63 63 63 63 64 63 64 54 64 70 70 70 67 65 64 63 57 53 52 55 49 53 55 56 55 55 52 53 48 48 48 50 49 48 45 44
59 59 60 60 61 62 63 64 64 63 63 63 63 64 63 60 63 67 69 69 67 66 63 61 59 54 50 50 54 49 51 54 55 55 53 54 50 50 46 44 48 48 46 44 44
59 59 60 60 61 62 63 63 64 63 63 63 64 63 61 56 65 67 66 66 65 64 60 61 56 56 52 51 49 50 51 53 54 54 53 52 46 46 46 44 45 46 43 43 44
60 59 59 60 60 61 62 63 63 63 63 63 64 65 61 62 64 65 67 61 61 61 60 58 57 55 53 51 53 51 49 51 51 52 52 51 47 46 47 45 44 43 42 43 44
60 59 59 59 60 61 61 62 62 62 63 64 64 61 58 64 62 65 63 62 63 63 61 58 58 56 52 52 52 47 44 42 48 50 49 51 44 50 46 44 43 41 39 42 43
59 59 59 60 59 60 61 61 62 63 65 64 59 59 55 65 61 62 61 60 60 60 60 65 58 51 52 45 43 42 38 38 46 50 47 47 43 48 45 45 42 40 39 41 41
59 59 59 60 59 60 60 62 63 63 64 65 67 57 57 58 60 61 60 61 58 57 57 55 50 46 44 44 38 39 38 40 40 46 44 42 45 46 43 43 43 41 39 40 40
59 59 59 60 60 61 57 61 60 59 60 57 55 55 56 59 60 58 60 58 57 55 48 49 46 43 46 46 44 41 39 39 42 48 44 43 45 52 44 41 39 36 38 39 40
59 59 59 60 60 60 55 54 49 50 51 52 53 54 57 57 54 57 60 55 53 49 48 46 44 48 47 47 44 41 38 38 43 43 43 41 41 48 44 43 44 42 40 39 39
59 58 58 59 59 56 51 49 52 50 46 52 54 54 55 58 54 55 58 54 50 47 46 44 47 49 47 42 42 39 38 37 40 40 41 37 34 41 40 42 43 44 43 42 41
59 58 58 58 56 51 50 51 52 50 42 49 50 53 55 54 50 55 55 53 48 48 46 44 46 46 43 42 43 37 41 40 39 35 31 38 30 36 39 41 38 40 39 40 39
58 58 58 59 48 50 50 51 49 51 28 50 49 57 54 51 50 50 53 52 47 47 46 45 44 43 42 44 44 42 41 37 36 33 29 30 27 32 34 37 43 38 39 40 40
59 58 57 54 49 48 49 48 50 42 31 46 49 49 48 48 49 50 50 53 49 46 42 44 44 45 44 42 42 43 38 36 31 29 22 30 30 28 34 38 39 37 39 39 37
59 58 54 53 49 48 49 49 38 31 47 46 45 46 45 45 46 47 45 43 43 38 37 39 41 40 43 39 39 39 35 27 24 20 25 29 26 39 43 44 41 39 38 37 38
58 57 54 53 49 49 48 44 29 39 43 46 46 44 43 46 44 44 41 39 43 40 35 36 38 39 42 41 39 35 37 27 18 18 29 27 26 35 39 37 36 38 39 38 36
56 52 52 50 50 50 44 31 35 40 46 46 44 39 39 43 44 40 37 37 44 44 42 33 33 37 37 38 40 35 32 35 27 5 12 27 30 37 34 34 32 34 34 34 35
52 51 52 52 51 48 38 41 40 47 47 45 44 45 38 40 39 38 38 41 44 44 43 42 36 34 35 36 35 34 38 29 24 14 10 21 26 34 36 35 31 30 32 33 34
51 45 48 53 53 46 36 37 43 49 50 47 42 42 41 40 40 36 40 42 43 40 41 39 39 32 34 32 33 31 30 31 30 25 17 13 30 36 39 37 31 32 34 34 33
49 41 46 55 42 39 38 39 46 45 52 47 45 45 45 42 39 37 38 48 46 43 40 39 35 27 30 31 33 33 35 36 27 21 20 21 32 40 39 39 34 34 35 34 34
46 46 47 47 36 37 35 39 46 42 47 48 45 45 46 44 41 39 44 46 45 44 39 40 32 21 27 29 30 30 32 34 32 28 28 22 32 36 36 32 34 34 34 34 32
45 38 42 43 44 40 39 38 39 44 47 46 45 45 41 40 46 42 39 41 40 42 46 48 34 32 34 35 30 26 30 32 34 26 31 32 35 43 44 41 34 32 32 32 32
45 41 43 36 39 41 41 39 41 38 44 47 45 46 45 41 43 42 46 36 36 40 38 40 35 32 41 43 33 34 37 29 29 34 31 37 37 43 47 49 42 39 34 31 31
45 43 42 45 42 39 40 38 38 41 40 40 41 44 47 43 46 44 44 40 40 30 33 33 33 31 32 35 33 32 37 36 34 36 36 37 35 48 51 51 47 36 33 31 31
52 50 46 44 41 38 38 39 40 43 44 47 45 44 42 46 53 54 48 47 45 40 30 27 27 24 29 32 29 25 35 36 39 40 38 31 39 47 45 37 36 32 33 32 31

GFSSW_sfc_temp_021.txt.gz
Temp
62 61 62 64 64 64 65 65 65 64 64 64 65 64 64 65 66 65 63 69 68 71 68 63 65 64 64 61 60 57 50 47 50 49 54 55 55 54 53 51 52 53 51 53 54
61 61 61 61 63 64 64 64 64 64 64 64 64 64 64 65 65 63 70 73 72 71 64 64 62 63 60 58 57 54 48 51 54 53 54 55 55 53 53 50 50 49 50 49 51
60 60 60 61 62 63 63 63 63 63 64 63 63 63 63 62 62 65 72 72 71 69 65 64 63 62 57 57 55 52 51 54 56 56 56 55 53 52 52 49 53 51 48 48 49
61 60 61 61 62 62 63 63 63 63 63 63 63 63 63 61 54 62 70 70 70 66 64 63 62 58 54 53 55 52 53 54 56 56 55 54 51 51 50 57 54 53 51 49 48
60 60 60 60 61 62 62 63 63 63 63 63 63 63 62 57 61 64 68 68 65 63 62 60 58 55 53 52 53 51 52 54 55 54 53 52 52 53 49 53 51 49 48 48 49
60 60 59 60 60 61 62 62 63 63 63 63 63 63 60 54 62 63 62 63 62 62 58 60 58 57 54 52 51 51 51 53 53 53 52 52 50 50 52 47 47 46 47 48 48
61 60 59 60 60 61 61 62 62 62 62 63 64 63 57 61 63 61 64 59 59 60 59 57 58 56 55 50 52 50 49 50 50 51 51 51 48 47 52 46 46 44 46 46 47
61 60 59 59 60 60 61 61 62 62 62 64 64 58 57 61 60 63 61 60 60 61 60 58 58 56 53 53 51 46 45 44 50 49 49 51 46 54 47 45 47 44 43 45 46
61 60 60 60 59 60 60 61 61 63 64 64 56 57 56 64 59 60 59 60 58 58 58 63 57 51 51 47 45 43 43 41 45 49 48 48 47 52 45 44 46 44 43 44 45
61 60 60 60 59 60 60 61 61 61 62 62 64 54 56 55 57 59 57 60 56 56 56 55 49 46 44 45 42 42 40 40 41 47 44 43 45 54 48 44 47 47 44 43 44
60 61 61 60 60 60 56 57 58 56 55 56 53 53 54 56 58 56 57 57 56 54 49 47 46 43 48 46 44 43 40 41 42 46 44 42 45 52 56 44 47 45 42 43 44
59 60 60 60 60 60 52 52 46 48 48 52 51 53 55 55 52 55 58 55 51 47 46 45 43 47 48 44 44 41 39 39 42 41 42 41 42 48 51 54 54 51 45 44 45
59 59 60 60 59 54 48 47 50 47 44 51 52 51 52 56 52 53 57 51 47 44 43 43 45 46 47 42 42 39 38 38 41 39 39 36 35 39 45 47 49 50 48 45 45
59 59 60 59 54 48 47 48 49 47 38 46 48 52 52 53 49 53 53 52 45 45 42 44 44 46 42 43 43 38 41 40 38 36 32 38 36 38 44 48 49 51 43 46 43
58 58 60 58 48 48 48 49 47 49 27 46 47 54 51 50 49 47 51 49 45 44 44 44 41 40 41 42 44 41 40 38 36 34 29 31 28 37 36 42 50 52 46 44 43
58 58 58 52 47 47 48 45 49 40 28 43 47 46 46 46 47 47 47 50 47 44 41 42 42 44 44 40 40 41 38 35 30 29 22 36 34 34 36 42 46 49 48 45 40
58 58 55 53 47 47 46 47 37 29 43 42 42 43 42 43 44 45 44 42 41 36 36 38 39 39 41 39 38 38 36 29 26 23 30 28 27 43 43 44 48 53 49 44 40
58 57 54 54 50 49 47 43 28 35 40 42 42 40 41 43 42 42 39 38 42 39 35 37 39 38 41 42 39 35 37 29 21 23 37 26 26 42 43 51 45 44 42 40 39
57 52 51 50 51 50 46 31 38 38 43 43 41 37 38 41 42 38 37 37 43 46 43 35 36 36 37 38 39 34 32 37 28 8 17 35 37 40 41 41 39 41 38 39 39
53 50 51 53 52 51 36 41 39 44 45 43 43 43 36 39 38 38 37 40 43 45 48 42 38 34 35 36 34 36 38 31 28 22 15 36 39 43 42 44 44 42 42 40 39
51 46 50 54 56 45 36 36 39 46 47 44 41 40 41 40 40 35 39 42 44 43 46 44 42 36 34 32 33 31 31 31 33 28 22 27 39 41 46 46 47 46 41 41 39
49 41 47 55 42 42 38 37 44 42 44 46 43 42 42 40 37 35 37 46 46 43 40 42 39 35 38 30 33 33 35 37 30 26 20 22 35 46 44 45 42 44 41 40 39
46 46 47 51 36 37 36 36 41 38 43 43 42 41 43 41 39 37 42 44 44 44 41 42 35 27 32 29 30 32 32 34 33 30 31 24 37 47 40 42 42 42 38 39 38
46 39 41 43 45 42 41 40 39 41 44 42 41 43 39 37 46 43 36 38 41 44 46 48 35 35 35 40 34 29 30 35 37 33 34 34 40 48 52 48 46 41 37 39 38
47 41 41 34 38 40 43 41 41 36 40 43 41 43 43 40 42 40 43 42 38 42 40 43 35 38 40 43 38 35 35 35 31 36 33 40 40 46 52 52 53 54 54 48 35
46 42 42 40 41 39 39 38 39 44 40 37 40 41 44 41 42 40 43 42 40 30 35 35 35 38 34 40 40 36 38 40 39 38 37 39 38 51 55 55 53 53 53 49 44
51 51 44 41 40 37 37 38 40 43 45 46 44 43 40 43 48 51 50 46 43 40 31 31 30 27 29 37 33 25 35 40 42 45 43 36 44 51 49 49 50 50 50 49 48

GFSSW_sfc_temp_024.txt.gz
Temp
61 62 63 63 64 64 65 65 65 64 64 64 65 64 64 65 66 76 75 77 76 71 70 77 78 77 76 72 71 70 68 64 64 62 67 67 67 65 64 65 63 66 64 63 68
61 61 63 63 63 63 64 64 64 64 64 64 64 64 64 65 77 76 76 73 73 72 76 77 75 76 75 71 71 71 66 66 69 70 68 68 68 68 65 64 63 63 64 60 64
61 61 62 62 62 63 63 63 63 63 63 63 63 64 64 69 76 77 73 73 72 73 77 77 76 76 71 71 69 67 67 68 68 69 68 67 65 68 66 64 71 69 70 60 61
61 61 61 61 62 62 63 63 63 63 63 63 63 63 64 78 68 75 70 71 71 76 76 75 74 71 69 67 68 65 67 67 67 66 64 64 66 63 66 73 71 73 71 63 60
61 60 60 60 61 62 62 63 63 63 63 63 63 63 72 73 75 75 68 70 75 75 74 74 73 70 68 68 66 65 67 65 67 64 65 62 64 66 65 72 71 64 63 62 62
61 60 60 60 60 61 62 62 63 63 62 63 63 64 76 68 73 75 73 73 75 76 73 74 73 71 68 67 66 67 64 66 65 65 64 61 64 60 70 69 68 61 63 63 63
61 60 60 60 60 61 61 62 62 62 62 63 64 70 72 74 75 75 73 72 71 74 72 71 72 70 69 63 64 63 61 64 63 64 63 61 60 59 72 61 64 61 63 63 63
61 60 60 60 60 60 61 61 61 62 62 64 65 73 71 71 76 73 73 71 72 72 71 70 71 68 66 64 63 61 60 60 62 60 60 61 60 71 72 62 64 66 64 61 61
61 60 60 60 60 60 60 61 61 63 64 65 70 73 69 70 70 72 73 71 70 70 70 70 70 65 63 63 62 59 61 57 59 62 58 59 62 68 62 61 63 68 66 62 61
60 60 60 60 60 60 60 61 63 64 67 69 72 68 68 67 68 69 71 71 68 67 67 67 66 64 62 63 57 61 57 59 57 60 56 56 58 66 69 60 64 69 69 65 61
60 60 60 59 60 60 61 71 73 69 68 68 68 66 65 67 68 66 69 69 69 67 63 61 62 59 66 66 66 60 57 59 64 57 56 58 57 62 67 66 62 65 68 66 62
60 60 60 60 60 60 62 65 61 59 60 63 61 61 63 66 62 63 69 66 63 60 59 59 57 66 62 59 56 56 56 57 61 53 52 56 53 58 62 63 65 67 68 68 64
60 59 60 59 59 61 59 58 58 58 57 60 61 61 62 64 62 62 65 62 60 56 57 59 63 55 56 55 53 55 55 58 53 52 51 48 51 54 60 60 63 63 66 68 64
59 59 59 60 58 57 58 57 58 58 55 56 57 60 59 61 58 60 63 63 58 57 55 57 59 56 54 54 56 52 57 54 50 48 49 50 45 58 62 61 60 67 69 64 61
59 59 59 59 56 57 56 57 57 58 40 57 55 62 58 57 56 56 61 61 57 54 55 57 50 50 51 55 56 55 50 50 48 47 42 50 43 55 49 52 59 65 69 64 63
58 59 58 57 56 57 56 56 58 52 39 53 54 52 52 53 53 55 57 61 58 54 52 54 53 53 56 48 50 49 49 46 43 45 38 51 48 53 53 56 61 64 68 61 57
58 58 58 58 56 56 56 59 50 43 52 51 52 50 51 50 51 52 51 50 50 46 48 52 51 51 51 50 49 49 49 45 42 39 41 46 41 51 57 60 61 66 70 60 58
58 57 57 58 59 56 58 55 39 50 51 52 50 48 50 51 51 49 47 48 51 49 47 48 49 46 51 55 54 47 51 44 35 39 44 39 38 54 60 64 64 58 59 55 54
58 56 54 57 56 57 53 43 48 53 53 50 48 47 48 48 52 48 49 50 53 52 49 45 48 45 44 47 51 45 44 49 42 29 32 49 56 56 53 54 54 53 55 57 56
54 52 51 58 57 54 45 46 52 55 52 52 51 53 51 52 45 47 48 53 51 52 61 53 45 45 42 46 45 45 47 40 42 33 34 46 48 52 53 53 55 53 55 61 58
53 46 52 56 56 45 40 45 52 54 55 52 54 53 52 53 49 48 53 53 54 51 52 51 49 45 42 41 47 39 42 42 41 38 37 36 46 59 57 56 54 56 60 61 58
51 42 49 53 41 42 38 48 48 49 52 53 51 53 54 54 49 48 50 54 57 50 45 51 46 44 49 42 42 45 47 47 41 37 40 41 42 55 58 58 56 56 55 58 57
47 45 48 50 37 36 41 42 46 46 50 51 50 51 55 51 44 49 53 53 51 51 46 46 39 35 40 37 39 40 41 46 48 46 39 36 42 59 62 61 60 58 59 55 57
47 39 41 44 45 42 41 41 40 47 48 46 45 48 46 43 50 48 48 48 48 52 47 50 39 42 39 47 46 39 40 42 44 38 40 41 46 54 58 58 60 61 56 55 55
48 42 42 33 38 41 44 43 41 41 46 47 43 45 46 41 46 45 49 51 43 44 44 44 36 40 43 45 45 43 45 44 38 42 39 45 47 54 58 59 62 64 61 60 60
44 42 41 41 43 39 40 39 40 45 46 42 42 46 47 42 43 41 44 45 43 37 42 41 34 38 34 40 40 38 43 44 44 44 44 43 41 54 57 59 58 57 58 56 57
46 47 43 40 39 37 37 38 40 44 47 49 48 45 43 45 49 52 51 50 45 42 40 37 36 34 28 38 36 29 36 41 43 48 47 39 47 55 54 55 55 57 58 55 55

GFSSW_sfc_temp_030.txt.gz
Temp
63 62 63 63 64 64 64 64 64 64 64 64 65 64 64 65 65 73 74 79 77 72 70 80 78 78 77 72 71 69 56 55 61 60 62 66 63 66 64 61 63 67 61 61 65
61 61 61 61 62 63 63 64 64 63 63 64 64 64 64 65 74 74 77 73 72 71 78 75 75 76 69 70 68 62 55 61 66 67 62 67 65 65 59 61 62 62 63 64 62
61 61 61 61 62 62 63 63 63 63 63 63 63 63 64 65 72 76 72 72 72 72 78 79 78 75 67 70 67 64 58 66 68 67 68 66 65 68 61 58 64 64 64 60 58
62 61 61 61 61 61 62 63 63 63 63 63 63 63 64 74 62 75 71 72 71 77 77 76 74 66 64 64 70 60 67 69 67 66 63 61 66 64 64 64 67 67 69 61 59
61 61 61 60 60 61 62 62 62 62 62 62 63 63 69 70 73 73 69 70 75 75 74 73 70 68 63 67 68 62 64 68 68 64 62 65 61 61 63 68 71 69 65 61 61
61 60 60 60 60 61 61 62 62 62 62 62 63 62 70 64 77 78 75 72 77 75 74 73 71 70 66 66 63 62 64 64 67 65 63 60 59 60 62 68 68 68 63 62 61
60 60 60 60 60 60 60 61 61 61 62 63 64 69 71 70 79 77 76 73 73 74 71 74 72 66 67 63 67 62 56 61 63 64 60 61 54 56 65 64 65 66 65 62 63
60 59 59 59 60 60 60 60 61 61 62 64 64 71 66 74 76 75 77 72 74 74 71 72 70 67 63 64 63 56 56 49 61 64 58 58 49 61 68 64 61 62 62 63 62
60 59 59 60 59 60 60 60 60 62 64 65 66 68 66 70 70 75 75 71 72 71 69 74 67 62 60 54 52 56 47 51 57 63 57 54 50 61 62 61 59 60 62 64 63
60 59 59 59 60 60 60 61 64 63 65 72 74 63 68 66 68 72 72 72 68 66 64 63 60 55 54 53 45 48 50 54 53 57 55 50 51 59 62 61 60 62 62 64 65
60 59 59 60 60 61 60 65 67 62 67 64 66 67 68 68 69 67 70 68 67 62 54 58 52 49 55 59 60 58 55 53 59 63 54 53 54 59 64 61 60 64 66 64 66
60 60 60 60 60 61 59 64 57 57 52 68 68 68 69 69 62 65 70 60 59 53 57 53 49 59 62 61 58 53 51 52 59 59 54 53 52 58 59 62 63 64 65 66 63
60 59 59 59 60 62 62 60 64 64 52 62 67 66 65 65 61 61 64 61 56 53 56 53 57 62 59 56 54 55 50 52 52 56 49 45 43 50 56 60 63 64 65 66 62
59 59 59 59 58 62 60 63 64 63 48 57 58 60 61 61 56 64 66 61 58 53 55 55 61 60 56 54 55 48 56 54 52 45 40 48 35 48 54 56 57 60 60 63 60
59 59 59 60 59 60 60 63 62 57 34 59 55 63 60 57 55 54 60 57 54 53 53 52 51 49 50 54 57 51 51 47 46 42 39 42 37 44 55 52 56 58 60 65 59
59 59 59 60 61 63 63 61 57 46 34 53 55 52 52 54 53 53 53 57 55 52 53 54 54 51 52 50 51 50 46 45 42 40 30 42 42 43 47 52 54 58 60 61 56
58 58 57 65 58 63 61 57 45 37 57 52 52 53 51 51 51 50 48 45 44 39 41 48 51 51 51 45 45 45 42 32 27 26 31 47 41 49 51 55 57 59 63 56 55
57 57 55 60 62 61 55 45 32 49 53 57 54 53 49 54 51 49 47 43 49 48 44 42 41 49 49 50 46 42 43 31 24 25 39 40 34 45 58 61 59 60 63 54 52
57 55 54 56 59 55 45 31 35 49 56 54 56 48 48 51 51 48 46 47 51 50 44 44 45 45 47 47 51 42 36 45 36 26 26 40 45 51 54 56 57 60 55 52 51
54 52 52 59 58 51 39 37 40 52 55 53 45 51 46 50 46 47 47 52 51 55 58 51 43 46 42 45 44 42 45 35 34 22 21 41 38 45 50 56 54 53 52 52 52
53 49 55 59 55 45 34 36 47 53 52 48 44 43 46 47 51 50 52 56 55 54 56 51 46 40 42 37 40 36 36 38 40 35 29 32 39 47 52 54 53 53 53 52 53
51 43 53 54 43 42 38 42 49 50 53 50 50 49 46 47 46 45 45 47 58 54 47 49 43 36 44 48 45 46 45 43 36 34 32 35 41 54 52 54 54 53 55 55 53
46 47 51 52 39 39 39 42 47 47 48 47 46 48 50 46 40 43 45 52 54 50 45 46 35 29 35 42 40 39 43 47 46 41 37 33 39 57 62 60 54 52 52 53 53
44 39 43 45 48 44 43 40 39 47 46 49 46 47 42 39 43 39 40 45 49 50 45 47 38 33 30 37 44 40 43 44 43 36 37 38 42 52 56 58 61 62 61 53 54
42 40 45 36 37 41 44 44 42 41 48 49 43 43 40 37 39 35 39 41 45 47 42 38 31 34 37 40 42 41 41 42 37 40 35 41 42 49 54 56 59 61 60 55 57
37 39 38 37 39 38 38 37 38 43 45 43 41 45 44 38 41 38 40 41 40 41 41 39 30 32 30 35 36 34 39 40 40 41 42 42 40 52 56 58 56 57 58 56 57
42 42 36 35 36 34 35 37 37 39 41 45 46 45 42 44 46 48 51 52 50 43 36 34 32 30 27 33 32 27 33 35 39 43 43 37 45 53 52 53 54 56 58 57 55

GFSSW_sfc_temp_036.txt.gz
Temp
63 63 63 63 63 63 63 63 63 63 63 63 64 63 63 64 64 64 64 73 71 70 69 69 66 66 65 61 62 58 48 43 49 51 55 56 56 58 58 56 56 61 56 56 55
62 62 62 62 62 62 63 63 63 63 63 63 63 63 63 63 63 63 72 72 72 70 69 66 63 63 58 58 59 53 44 50 56 55 55 57 57 57 55 54 55 56 54 54 55
62 62 62 62 62 62 62 62 62 62 62 62 62 63 62 61 62 66 71 72 71 70 71 69 67 65 56 56 56 53 50 54 60 60 60 58 55 58 55 54 57 59 56 52 50
62 61 61 61 61 62 62 62 62 62 62 62 62 62 62 61 56 67 70 71 70 69 70 66 64 58 55 54 59 51 57 59 61 61 59 56 56 56 56 64 62 62 58 52 51
61 60 60 60 61 61 62 62 62 62 62 62 62 62 61 57 62 67 68 69 67 67 66 64 60 58 54 54 55 53 55 60 60 60 58 57 58 56 56 59 62 60 56 53 54
60 60 60 60 60 61 61 62 62 62 62 62 62 62 59 54 68 68 66 64 67 65 64 63 62 62 57 57 54 54 57 57 57 58 57 57 55 55 63 56 59 59 56 54 55
60 60 59 60 60 61 61 61 62 61 61 62 62 62 57 62 68 66 67 64 63 63 62 63 63 59 56 55 58 57 53 54 59 56 56 55 53 51 65 56 58 58 56 56 56
60 60 59 60 60 60 61 61 61 61 61 62 63 58 57 67 64 66 65 64 65 66 64 64 64 60 56 58 56 49 46 44 54 52 54 57 51 58 60 56 57 55 55 55 56
60 59 59 60 60 60 60 61 61 61 62 63 56 56 56 67 63 67 66 63 63 64 64 69 62 55 54 48 44 41 39 41 48 55 52 50 48 57 56 53 55 55 54 55 59
60 59 60 60 60 60 61 61 60 61 62 64 66 53 60 60 63 65 64 65 61 60 58 56 51 47 45 43 37 39 37 41 44 50 46 45 47 56 58 53 53 54 53 53 56
60 60 60 60 60 61 57 55 56 55 54 56 56 56 60 61 63 61 63 62 60 54 47 49 44 43 51 49 54 43 42 42 47 52 47 47 49 55 60 53 53 58 60 56 56
60 60 60 60 60 60 55 51 48 50 45 55 56 57 62 61 56 58 63 56 52 46 48 43 40 52 52 50 47 45 45 45 51 54 46 48 50 54 55 59 60 58 60 61 63
59 59 59 59 60 57 52 51 56 53 41 50 54 55 57 60 55 56 60 54 49 46 46 47 50 53 50 47 46 45 43 45 45 47 44 44 46 47 50 56 62 63 61 64 64
59 59 59 60 56 52 51 55 55 52 36 46 51 54 56 57 51 55 56 55 47 47 45 44 53 52 45 45 48 44 49 49 46 38 37 43 39 42 49 51 55 59 60 59 61
59 59 60 60 53 52 56 55 54 50 28 50 50 58 54 52 49 51 53 52 45 45 45 46 45 44 43 49 48 48 49 46 41 36 33 37 33 39 48 47 53 59 60 59 62
58 58 59 57 54 57 58 56 53 41 29 46 49 46 47 47 47 49 48 52 49 44 44 47 47 48 47 47 47 46 42 40 35 34 28 42 37 45 41 48 52 56 60 62 64
58 58 56 60 54 58 58 54 41 33 47 44 44 45 45 45 45 45 44 42 42 37 36 40 44 47 49 44 43 44 38 30 25 23 29 40 35 48 48 51 52 57 60 62 64
57 57 55 58 58 58 54 45 34 42 44 49 48 45 43 46 45 43 40 38 40 40 37 36 40 45 46 48 43 39 44 30 21 28 38 33 30 46 52 57 59 57 61 61 58
57 55 54 55 56 54 47 36 39 42 47 46 48 43 40 43 45 40 37 38 43 44 41 36 37 42 44 44 49 38 35 46 33 20 21 34 42 53 51 50 50 51 53 54 50
51 52 52 56 56 51 41 41 44 48 49 48 40 44 38 40 39 39 39 43 43 45 50 45 39 41 40 41 42 42 43 33 31 21 20 31 33 41 49 51 55 55 52 55 51
47 44 50 56 55 45 37 40 45 50 52 47 45 43 44 42 44 42 45 45 46 46 46 45 42 40 37 36 39 35 36 36 36 33 32 30 36 55 54 49 48 50 50 49 48
43 37 51 55 42 42 40 44 47 47 49 48 47 45 43 45 42 43 42 48 49 50 44 46 39 32 39 48 43 41 40 43 35 34 34 37 37 57 55 50 50 50 52 50 49
42 41 52 52 37 38 43 42 46 45 45 45 44 46 48 43 38 44 45 51 53 49 43 43 35 29 29 34 41 38 42 43 43 42 36 31 35 56 57 56 52 49 53 52 53
40 34 42 46 45 41 40 41 41 46 44 45 44 46 43 39 44 40 42 47 47 49 50 47 40 34 29 37 40 35 39 44 41 34 36 37 39 47 51 52 55 57 59 60 60
38 34 36 34 38 40 41 40 39 38 44 43 41 42 38 34 35 35 38 38 41 45 45 43 33 35 36 37 39 38 38 40 37 39 33 37 38 44 50 52 54 54 52 50 53
34 33 34 35 34 35 37 36 36 37 38 37 36 32 32 31 32 30 32 33 33 35 34 36 32 33 32 35 34 32 37 38 39 40 39 41 39 49 52 54 53 53 54 53 54
35 39 34 31 29 28 29 34 35 35 35 38 33 31 31 34 35 36 39 37 34 32 31 32 30 29 26 35 32 28 34 36 38 41 40 34 42 49 48 49 51 52 46 41 41